User: anonymous   Login
Location: Hickory_Viewmont
(35.7830°N, 81.3170°W)
Time: 19:11:54
(UTC-05:00)
Language:

Okean-O - Orbit

View from above orbital plane
View from above orbital plane
View from above satellite
View from above satellite

Ground track
Ground track

The orbit data is extracted from the following two-line orbital elements,

1 25860U 99039A   17326.58544064 +.00000088 +00000-0 +20267-4 0  9993
2 25860 098.2015 313.7607 0001335 064.2433 295.8914 14.76515128987102
Epoch (UTC): 22 November 2017 14:03:02
Eccentricity: 0.0001335
inclination: 98.2015°
perigee height: 639 km
apogee height: 641 km
right ascension of ascending node: 313.7607°
argument of perigee: 64.2433°
revolutions per day: 14.76515128
mean anomaly at epoch: 295.8914°
orbit number at epoch: 98710

The dashed part of the orbit path shows where the satellite is in the earth's shadow,  

DLR